Simultaneous Nadir Overpasses (SNOs) Predictions

Prediction of SNOs between GOES-15 and TERRA Satellite Orbit:

Table of predicted SNOs for the next 14.0 days since TLE Epoch: 12/5/2025
Index Date Time (GOES-15) GOES-15 Lat,Lon TERRA Lat,Lon Distance(km) Time Diff (sec)
1 12/07/2025 05:02:02 0.62, 61.42 0.52, 61.77 40.34 80
2 12/09/2025 17:01:56 -0.60, 61.49 -0.55, 61.74 28.46 80
3 12/10/2025 05:18:36 0.56, 61.40 1.48, 57.02 497.32 80
4 12/12/2025 05:01:39 0.59, 61.38 0.51, 61.75 41.72 80
5 12/14/2025 17:01:32 -0.56, 61.45 -0.51, 61.72 31.18 80
6 12/15/2025 05:18:13 0.52, 61.37 1.41, 57.00 495.75 80
7 12/17/2025 05:01:14 0.54, 61.36 0.49, 61.74 42.93 80
